This is the latest recevied weather packets stored in our database for station/object WX0ABE-13. If no packets are shown the sender has not sent any weather packets the latest 10 day(s).
| Time | Temp. | Humidity | Pressure | Rain* | Wind** | Luminosity | Snow |
|---|---|---|---|---|---|---|---|
| 1787737768 | 16.67° C | 94% | 1025.4 hPa | 1.78 mm | - | 0 W/m² | - |
| 1787737468 | 16.67° C | 93% | 1025.8 hPa | 1.27 mm | - | 0 W/m² | - |
| 1787737163 | 16.67° C | 93% | 1025.6 hPa | 3.05 mm | - | 0 W/m² | - |
| 1787736859 | 16.11° C | 92% | 1025.6 hPa | 3.05 mm | - | 0 W/m² | - |
| 1787736554 | 16.11° C | 91% | 1025.6 hPa | 24.64 mm | - | 0 W/m² | - |
| 1787736254 | 16.11° C | 89% | 1025.3 hPa | 41.4 mm | - | 0 W/m² | - |
| 1787735953 | 17.22° C | 85% | 1024.8 hPa | 24.64 mm | - | 0 W/m² | - |
| 1787735648 | 18.33° C | 80% | 1024.8 hPa | 1.78 mm | - | 0 W/m² | - |
| 1787735343 | 19.44° C | 71% | 1025.1 hPa | 0 mm | - | 0 W/m² | - |
| 1787735042 | 20° C | 65% | 1024.9 hPa | 0 mm | - | 0 W/m² | - |
| 1787734742 | 20° C | 64% | 1024.9 hPa | 0 mm | - | 0 W/m² | - |
| 1787734437 | 20° C | 69% | 1024.7 hPa | 0 mm | - | 0 W/m² | - |
| 1787734133 | 20° C | 74% | 1024.9 hPa | 0 mm | - | 0 W/m² | - |
| 1787733832 | 20° C | 80% | 1024.1 hPa | 0 mm | - | 0 W/m² | - |
| 1787733527 | 19.44° C | 80% | 1023.5 hPa | 0 mm | - | 0 W/m² | - |
| 1787733223 | 19.44° C | 80% | 1023.3 hPa | 0 mm | - | 0 W/m² | - |
| 1787732919 | 19.44° C | 80% | 1023 hPa | 0 mm | - | 0 W/m² | - |
| 1787732613 | 18.89° C | 82% | 1022.9 hPa | 0 mm | - | 0 W/m² | - |
| 1787732309 | 19.44° C | 81% | 1023.1 hPa | 0 mm | - | 0 W/m² | - |
| 1787732007 | 20° C | 79% | 1023.1 hPa | 0 mm | - | 0 W/m² | - |
| 1787731706 | 20° C | 79% | 1022.9 hPa | 0 mm | - | 0 W/m² | - |
| 1787731405 | 20.56° C | 79% | 1022.8 hPa | 0 mm | - | 0 W/m² | - |
| 1787731100 | 20.56° C | 78% | 1022.9 hPa | 0 mm | - | 0 W/m² | - |
| 1787730800 | 20° C | 78% | 1022.8 hPa | 0 mm | - | 0 W/m² | - |
| 1787730495 | 20° C | 79% | 1022.9 hPa | 0 mm | - | 0 W/m² | - |
* Rain latest hour (hover to see other rain measurements)
** Current wind speed in m/s (hover to see current wind gust speed)